User: anonymous   Login
Location: Unspecified
(35.6961°N, 0.0000°E)
Time: 09:50:14
(UTC+00:00)
Language:

CUTE 1.7 + AOD 2 - Orbit

View from above orbital plane
View from above orbital plane
View from above satellite
View from above satellite

Ground track
Ground track

The orbit data is extracted from the following two-line orbital elements,

1 32785U 08021C   19174.79510332 +.00000128 +00000-0 +19395-4 0  9990
2 32785 097.5492 174.2687 0011580 243.1978 116.8055 14.88312426604372
Epoch (UTC): 23 June 2019 19:04:56
Eccentricity: 0.0011580
inclination: 97.5492°
perigee height: 595 km
apogee height: 611 km
right ascension of ascending node: 174.2687°
argument of perigee: 243.1978°
revolutions per day: 14.88312426
mean anomaly at epoch: 116.8055°
orbit number at epoch: 60437

The dashed part of the orbit path shows where the satellite is in the earth's shadow,  

DLR